Prague, Czech Republic

11:11 AM CET on January 19, 2018 (GMT +0100)
Ruzyne

Weather History for LKPR - October, 2014

Change the Weather History Date:

Wednesday, October 15, 2014

  Actual Average Record
Temperature  
Mean Temperature 54 °F -  
Max Temperature 61 °F 50 °F 73 °F (2000)
Min Temperature 46 °F 36 °F 28 °F (2011)
Degree Days  
Heating Degree Days 12    
Growing Degree Days 4 (Base 50)    
Moisture  
Dew Point 50 °F    
Average Humidity 92    
Maximum Humidity 100    
Minimum Humidity 63    
Precipitation  
Precipitation 0.20 in 0.04 in - ()
Sea Level Pressure  
Sea Level Pressure 29.80 in    
Wind  
Wind Speed 5 mph ()    
Max Wind Speed 12 mph    
Max Gust Speed -    
Visibility 6.1 miles    
Events Fog , Rain    
Averages and records for this station are not official NWS values.
T = Trace of Precipitation, MM = Missing Value Source: Averaged Metar Reports

Daily Weather History Graph

Daily Weather History Graph

Search for Another Location

Airport or City:

Trip Planner

Search our weather history database for the weather conditions in past years. The results will help you decide how hot, cold, wet, or windy it might be!

Date:

Astronomy

Oct. 15, 2014 Rise Set
Actual Time 7:24 AM CEST 6:12 PM CEST
Civil Twilight 6:51 AM CEST 6:44 PM CEST
Nautical Twilight 6:14 AM CEST 7:22 PM CEST
Astronomical Twilight 5:36 AM CEST 7:59 PM CEST
Moon 11:43 PM CEST (10/15) 2:10 PM CEST (10/15)
Length of Visible Light 11h 52m
Length of Day
10h 47m
Waning Gibbous, 54% of the Moon is Illuminated
Oct 15
Waning Gibbous
Oct 15
Last Quarter
Oct 23
New
Oct 31
First Quarter
Nov 6
Full

Hourly Weather History & Observations

Time (CEST) Temp. Windchill Dew Point Humidity Pressure Visibility Wind Dir Wind Speed Gust Speed Precip Events Conditions
12:00 AM 50 °F - 48 °F 92% 29.86 in 19 mi South 6.7 mph - -   Clear
12:00 AM 50.0 °F - 48.2 °F 94% 29.83 in - SSE 4.6 mph - N/A   Clear
12:30 AM 51.8 °F - 50.0 °F 94% 29.83 in - SSE 4.6 mph - N/A   Clear
1:00 AM 51 °F - 49 °F 92% 29.85 in 19 mi South 4.5 mph - -   Clear
1:00 AM 51.8 °F - 50.0 °F 94% 29.83 in - South 4.6 mph - N/A   Clear
1:30 AM 51.8 °F - 50.0 °F 94% 29.83 in - South 4.6 mph - N/A   Clear
2:00 AM 52 °F - 50 °F 90% 29.84 in 19 mi South 6.7 mph - -   Clear
2:00 AM 51.8 °F - 50.0 °F 94% 29.83 in - South 5.8 mph - N/A   Clear
2:30 AM 51.8 °F - 48.2 °F 88% 29.83 in - Variable 2.3 mph - N/A   Clear
3:00 AM 47 °F - 46 °F 95% 29.85 in 9 mi WNW 2.2 mph - - Fog Patches of Fog
3:00 AM 48.2 °F - 46.4 °F 93% 29.83 in 6.2 mi Variable 2.3 mph - N/A Fog Shallow Fog
3:30 AM 48.2 °F - 48.2 °F 100% 29.83 in 6.2 mi Calm Calm - N/A Fog Shallow Fog
4:00 AM 49 °F - 48 °F 93% 29.83 in 12 mi East 6.7 mph - -   Clear
4:00 AM 48.2 °F - 48.2 °F 100% 29.80 in - ESE 4.6 mph - N/A   Clear
4:30 AM 48.2 °F - 48.2 °F 100% 29.80 in - SSE 5.8 mph - N/A   Clear
5:00 AM 47 °F - 46 °F 93% 29.84 in 9 mi South 4.5 mph - -   Clear
5:00 AM 46.4 °F 43.5 °F 46.4 °F 100% 29.80 in - SSE 5.8 mph - N/A   Clear
5:30 AM 48.2 °F - 46.4 °F 93% 29.80 in - SE 5.8 mph - N/A   Clear
6:00 AM 49 °F - 48 °F 93% 29.83 in 9 mi SSE 2.2 mph - -   Scattered Clouds
6:00 AM 48.2 °F - 48.2 °F 100% 29.80 in - SE 5.8 mph - N/A   Clear
6:30 AM 48.2 °F - 48.2 °F 100% 29.80 in - SE 5.8 mph - N/A   Clear
7:00 AM 48 °F - 47 °F 95% 29.82 in 7 mi SSE 2.2 mph - -   Partly Cloudy
7:00 AM 48.2 °F - 46.4 °F 93% 29.80 in - SSE 5.8 mph - N/A   Clear
7:30 AM 48.2 °F - 48.2 °F 100% 29.80 in - SSE 6.9 mph - N/A   Clear
8:00 AM 48 °F - 47 °F 96% 29.81 in 7 mi SSW 4.5 mph - -   Scattered Clouds
8:00 AM 48.2 °F - 48.2 °F 100% 29.80 in - SSW 3.5 mph - N/A   Clear
8:30 AM 48.2 °F - 48.2 °F 100% 29.80 in - WSW 3.5 mph - N/A   Clear
8:48 AM 50.0 °F - 48.2 °F 94% 29.80 in 3.7 mi WNW 9.2 mph - N/A   Mostly Cloudy
9:00 AM 49 °F - 48 °F 97% 29.83 in 3 mi NNW 8.9 mph - -   Mist
9:00 AM 50.0 °F - 48.2 °F 94% 29.80 in 3.1 mi NNW 8.1 mph - N/A   Mostly Cloudy
9:03 AM 50.0 °F - 48.2 °F 94% 29.80 in 1.9 mi NNW 6.9 mph - N/A   Mostly Cloudy
9:06 AM 50.0 °F - 48.2 °F 94% 29.80 in 1.4 mi NW 6.9 mph - N/A   Mostly Cloudy
9:11 AM 48.2 °F - 48.2 °F 100% 29.80 in 0.6 mi NNW 6.9 mph - N/A   Mostly Cloudy
9:17 AM 48.2 °F - 48.2 °F 100% 29.80 in 0.3 mi NNW 6.9 mph - N/A Fog Fog
9:21 AM 48.2 °F - 48.2 °F 100% 29.80 in 0.2 mi NNW 5.8 mph - N/A Fog Fog
9:30 AM 48.2 °F - 48.2 °F 100% 29.80 in 0.2 mi NNW 4.6 mph - N/A Fog Fog
10:00 AM 49 °F - 48 °F 96% 29.83 in 0 mi NNW 2.2 mph - - Fog Heavy Fog
10:00 AM 48.2 °F - 48.2 °F 100% 29.80 in 0.2 mi Variable 1.2 mph - N/A Fog Fog
10:12 AM 50.0 °F - 48.2 °F 94% 29.80 in 0.2 mi Variable 1.2 mph - N/A Fog Fog
10:16 AM 48.2 °F - 48.2 °F 100% 29.80 in 0.2 mi Variable 1.2 mph - N/A Fog Fog
10:30 AM 50.0 °F - 48.2 °F 94% 29.80 in 0.2 mi Calm Calm - N/A Fog Fog
10:42 AM 50.0 °F - 48.2 °F 94% 29.80 in 0.5 mi Variable 2.3 mph - N/A Fog Fog
10:49 AM 50.0 °F - 50.0 °F 100% 29.80 in 0.6 mi Variable 2.3 mph - N/A Fog Patches of Fog
11:00 AM 50 °F - 49 °F 97% 29.82 in 1 mi South 2.2 mph - - Fog Light Fog
11:00 AM 50.0 °F - 50.0 °F 100% 29.80 in 0.7 mi Variable 2.3 mph - N/A Fog Patches of Fog
11:04 AM 50.0 °F - 50.0 °F 100% 29.80 in 1.6 mi Variable 4.6 mph - N/A   Mostly Cloudy
11:10 AM 51.8 °F - 50.0 °F 94% 29.80 in 2.2 mi SSE 3.5 mph - N/A   Scattered Clouds
11:22 AM 51.8 °F - 50.0 °F 94% 29.80 in 4.3 mi SSW 3.5 mph - N/A   Scattered Clouds
11:30 AM 51.8 °F - 51.8 °F 100% 29.80 in 5.0 mi SSW 4.6 mph - N/A   Partly Cloudy
12:00 PM 53 °F - 52 °F 97% 29.83 in 4 mi West 8.9 mph - - Rain Light Rain
12:00 PM 53.6 °F - 51.8 °F 94% 29.83 in 3.7 mi WSW 10.4 mph - N/A Rain Light Rain
12:04 PM 53.6 °F - 51.8 °F 94% 29.83 in 3.7 mi West 8.1 mph - N/A Rain Light Rain
12:19 PM 53.6 °F - 51.8 °F 94% 29.83 in 1.9 mi NNW 6.9 mph - N/A Rain Rain
12:30 PM 53.6 °F - 51.8 °F 94% 29.83 in 1.9 mi NNW 5.8 mph - N/A Rain Rain
12:40 PM 53.6 °F - 51.8 °F 94% 29.80 in 2.5 mi NNW 3.5 mph - N/A Rain Light Rain
1:00 PM 54 °F - 53 °F 95% 29.82 in 4 mi NNE 2.2 mph - - Rain Light Rain
1:00 PM 53.6 °F - 53.6 °F 100% 29.80 in 3.7 mi Variable 2.3 mph - N/A Rain Light Rain
1:09 PM 55.4 °F - 53.6 °F 94% 29.80 in 5.0 mi Variable 1.2 mph - N/A   Mostly Cloudy
1:30 PM 55.4 °F - 53.6 °F 94% 29.80 in 6.2 mi Calm Calm - N/A   Partly Cloudy
2:00 PM 57 °F - 54 °F 85% 29.78 in 9 mi SE 6.7 mph - - Rain Light Rain
2:00 PM 57.2 °F - 53.6 °F 88% 29.77 in 6.2 mi ESE 5.8 mph - N/A   Partly Cloudy
2:30 PM 59.0 °F - 53.6 °F 82% 29.77 in 6.2 mi SE 8.1 mph - N/A   Partly Cloudy
3:00 PM 59 °F - 53 °F 75% 29.78 in 16 mi SSW 6.7 mph - -   Scattered Clouds
3:00 PM 59.0 °F - 53.6 °F 82% 29.77 in 6.2 mi South 5.8 mph - N/A   Partly Cloudy
3:30 PM 60.8 °F - 53.6 °F 77% 29.77 in 6.2 mi South 5.8 mph - N/A   Partly Cloudy
4:00 PM 60 °F - 53 °F 70% 29.76 in 16 mi South 4.5 mph - -   Scattered Clouds
4:00 PM 60.8 °F - 51.8 °F 72% 29.77 in 6.2 mi South 5.8 mph - N/A   Partly Cloudy
4:30 PM 60.8 °F - 51.8 °F 72% 29.77 in 6.2 mi Variable 4.6 mph - N/A   Partly Cloudy
5:00 PM 61 °F - 52 °F 63% 29.76 in 19 mi SSE 4.5 mph - -   Scattered Clouds
5:00 PM 60.8 °F - 51.8 °F 72% 29.77 in 6.2 mi South 5.8 mph - N/A   Partly Cloudy
5:30 PM 57.2 °F - 51.8 °F 82% 29.77 in 6.2 mi South 4.6 mph - N/A   Partly Cloudy
6:00 PM 56 °F - 52 °F 81% 29.78 in 9 mi SSW 4.5 mph - -   Mostly Cloudy
6:00 PM 55.4 °F - 51.8 °F 88% 29.77 in 6.2 mi SSW 5.8 mph - N/A   Partly Cloudy
6:06 PM 57.2 °F - 51.8 °F 82% 29.77 in 6.2 mi SSW 4.6 mph - N/A Rain Light Rain Showers
6:22 PM 57.2 °F - 53.6 °F 88% 29.80 in 3.7 mi WNW 5.8 mph - N/A Rain Rain Showers
6:30 PM 57.2 °F - 53.6 °F 88% 29.80 in 3.7 mi WNW 5.8 mph - N/A Rain Rain Showers
6:33 PM 55.4 °F - 51.8 °F 88% 29.80 in 3.1 mi West 11.5 mph - N/A Rain Heavy Rain Showers
6:48 PM 53.6 °F - 50.0 °F 88% 29.77 in 6.2 mi West 8.1 mph - N/A Rain Rain Showers
7:00 PM 53 °F - 51 °F 89% 29.79 in 9 mi WSW 4.5 mph - - Rain Light Rain Showers
7:00 PM 53.6 °F - 50.0 °F 88% 29.77 in 6.2 mi WSW 5.8 mph - N/A Rain Light Rain Showers
7:15 PM 53.6 °F - 50.0 °F 88% 29.77 in 6.2 mi SSE 4.6 mph - N/A   Partly Cloudy
7:30 PM 53.6 °F - 51.8 °F 94% 29.77 in - SSE 4.6 mph - N/A   Clear
8:00 PM 52 °F - 49 °F 88% 29.78 in 16 mi South 4.5 mph - - Rain Light Rain Showers
8:00 PM 51.8 °F - 50.0 °F 94% 29.77 in - SSE 4.6 mph - N/A   Clear
8:30 PM 50.0 °F - 48.2 °F 94% 29.77 in - South 3.5 mph - N/A   Clear
9:00 PM 51 °F - 50 °F 94% 29.79 in 16 mi SSW 8.9 mph - -   Scattered Clouds
9:00 PM 51.8 °F - 50.0 °F 94% 29.77 in - SSW 5.8 mph - N/A   Clear
9:30 PM 51.8 °F - 50.0 °F 94% 29.77 in - SSW 6.9 mph - N/A   Clear
10:00 PM 53 °F - 51 °F 91% 29.79 in 12 mi SW 11.2 mph - -   Scattered Clouds
10:00 PM 53.6 °F - 51.8 °F 94% 29.77 in - SSW 10.4 mph - N/A   Clear
10:30 PM 53.6 °F - 50.0 °F 88% 29.77 in - WSW 8.1 mph - N/A   Clear
11:00 PM 52 °F - 50 °F 89% 29.80 in 16 mi WNW 4.5 mph - -   Scattered Clouds
11:00 PM 51.8 °F - 50.0 °F 94% 29.80 in - WSW 4.6 mph - N/A   Clear
11:30 PM 50.0 °F - 48.2 °F 94% 29.77 in - WSW 6.9 mph - N/A   Clear